Time,TemperatureF,DewpointF,PressureIn,WindDirection,WindDirectionDegrees,WindSpeedMPH,WindSpeedGustMPH,Humidity,HourlyPrecipIn,Conditions,Clouds,dailyrainin,SoftwareType,DateUTC
2013-03-27 00:00:00,55.5,53.8,29.60,WSW,249,12.7,12.7,94,0.00,RA,,0.00,WeatherDisplay:10.37,2013-03-26 23:00:00,
2013-03-27 00:05:00,55.4,53.7,29.60,West,266,12.7,12.7,94,0.00,RA,,0.00,WeatherDisplay:10.37,2013-03-26 23:05:00,
2013-03-27 00:10:00,55.4,53.7,29.60,West,265,12.7,12.7,94,0.00,CLR,,0.00,WeatherDisplay:10.37,2013-03-26 23:10:00,
2013-03-27 00:15:00,55.5,53.8,29.60,WNW,288,11.5,11.5,94,0.00,CLR,,0.00,WeatherDisplay:10.37,2013-03-26 23:15:00,
2013-03-27 00:20:00,55.5,53.8,29.59,WSW,237,11.5,11.5,94,0.00,CLR,,0.00,WeatherDisplay:10.37,2013-03-26 23:20:00,
2013-03-27 00:25:00,55.5,53.8,29.59,West,266,14.0,14.0,94,0.00,CLR,,0.00,WeatherDisplay:10.37,2013-03-26 23:25:00,
2013-03-27 00:30:00,55.5,53.8,29.59,WSW,250,12.7,12.7,94,0.00,CLR,,0.00,WeatherDisplay:10.37,2013-03-26 23:30:00,
2013-03-27 00:35:00,55.4,53.7,29.59,West,278,11.5,11.5,94,0.00,CLR,,0.00,WeatherDisplay:10.37,2013-03-26 23:35:00,
2013-03-27 00:40:00,55.5,53.8,29.59,WNW,284,11.5,11.5,94,0.00,CLR,,0.00,WeatherDisplay:10.37,2013-03-26 23:40:00,
2013-03-27 00:45:00,55.5,53.8,29.60,West,262,11.5,11.5,94,0.00,CLR,,0.00,WeatherDisplay:10.37,2013-03-26 23:45:00,
2013-03-27 00:50:00,55.5,53.8,29.60,West,280,11.5,11.5,94,0.00,CLR,,0.00,WeatherDisplay:10.37,2013-03-26 23:50:00,
2013-03-27 00:55:00,55.5,53.8,29.59,WSW,245,13.8,13.8,94,0.00,CLR,,0.00,WeatherDisplay:10.37,2013-03-26 23:55:00,
2013-03-27 01:00:00,55.5,53.8,29.59,WSW,256,16.1,16.1,94,0.00,CLR,,0.00,WeatherDisplay:10.37,2013-03-27 00:00:00,
2013-03-27 01:05:00,55.5,53.8,29.59,WSW,237,18.4,18.4,94,0.00,CLR,,0.00,WeatherDisplay:10.37,2013-03-27 00:05:00,
2013-03-27 01:10:00,55.6,53.9,29.59,West,274,19.6,19.6,94,0.00,CLR,,0.00,WeatherDisplay:10.37,2013-03-27 00:10:00,
2013-03-27 01:15:00,55.6,53.9,29.59,West,272,13.8,13.8,94,0.00,CLR,,0.00,WeatherDisplay:10.37,2013-03-27 00:15:00,
2013-03-27 01:20:00,55.6,53.9,29.58,WSW,244,16.0,16.0,94,0.00,CLR,,0.00,WeatherDisplay:10.37,2013-03-27 00:20:00,
2013-03-27 01:25:00,55.6,53.9,29.58,WSW,248,18.4,18.4,94,0.00,CLR,,0.00,WeatherDisplay:10.37,2013-03-27 00:25:00,
2013-03-27 01:30:00,55.5,53.8,29.58,WSW,253,15.0,15.0,94,0.00,CLR,,0.00,WeatherDisplay:10.37,2013-03-27 00:30:00,
2013-03-27 01:35:00,55.5,53.8,29.58,West,266,17.3,17.3,94,0.00,CLR,,0.00,WeatherDisplay:10.37,2013-03-27 00:35:00,
2013-03-27 01:40:00,55.5,53.8,29.58,WSW,243,18.4,18.4,94,0.00,CLR,,0.00,WeatherDisplay:10.37,2013-03-27 00:40:00,
2013-03-27 01:45:00,55.4,53.7,29.58,WSW,257,12.7,12.7,94,0.00,CLR,,0.00,WeatherDisplay:10.37,2013-03-27 00:45:00,
2013-03-27 01:50:00,55.4,53.7,29.57,West,261,11.5,11.5,94,0.00,CLR,,0.00,WeatherDisplay:10.37,2013-03-27 00:50:00,
2013-03-27 01:55:00,55.4,54.0,29.57,WSW,253,10.4,10.4,95,0.00,CLR,,0.00,WeatherDisplay:10.37,2013-03-27 00:55:00,
2013-03-27 02:00:00,55.4,54.0,29.57,SW,229,12.7,12.7,95,0.00,CLR,,0.00,WeatherDisplay:10.37,2013-03-27 01:00:00,
2013-03-27 02:05:00,55.4,54.0,29.57,WSW,237,15.0,15.0,95,0.00,CLR,,0.00,WeatherDisplay:10.37,2013-03-27 01:05:00,
2013-03-27 02:10:00,55.4,54.0,29.57,West,277,10.4,10.4,95,0.00,CLR,,0.00,WeatherDisplay:10.37,2013-03-27 01:10:00,
2013-03-27 02:15:00,55.3,53.9,29.57,West,263,12.7,12.7,95,0.00,CLR,,0.00,WeatherDisplay:10.37,2013-03-27 01:15:00,
2013-03-27 02:20:00,55.3,53.9,29.56,WSW,253,13.8,13.8,95,0.00,CLR,,0.00,WeatherDisplay:10.37,2013-03-27 01:20:00,
2013-03-27 02:25:00,55.3,53.9,29.56,WSW,241,11.5,11.5,95,0.00,CLR,,0.00,WeatherDisplay:10.37,2013-03-27 01:25:00,
2013-03-27 02:30:00,55.2,53.8,29.56,West,272,12.7,12.7,95,0.00,CLR,,0.00,WeatherDisplay:10.37,2013-03-27 01:30:00,
2013-03-27 02:35:00,55.3,53.9,29.56,WSW,245,15.0,15.0,95,0.00,CLR,,0.00,WeatherDisplay:10.37,2013-03-27 01:35:00,
2013-03-27 02:40:00,55.2,53.8,29.56,WSW,246,17.3,17.3,95,0.00,CLR,,0.00,WeatherDisplay:10.37,2013-03-27 01:40:00,
2013-03-27 02:45:00,55.2,53.8,29.56,West,268,10.4,10.4,95,0.00,CLR,,0.00,WeatherDisplay:10.37,2013-03-27 01:45:00,
2013-03-27 02:50:00,55.2,53.8,29.56,West,276,12.7,12.7,95,0.00,CLR,,0.00,WeatherDisplay:10.37,2013-03-27 01:50:00,
2013-03-27 02:55:00,55.2,53.8,29.56,WSW,254,13.8,13.8,95,0.00,CLR,,0.00,WeatherDisplay:10.37,2013-03-27 01:55:00,
2013-03-27 03:00:00,55.2,53.8,29.55,WSW,242,11.5,11.5,95,0.00,CLR,,0.00,WeatherDisplay:10.37,2013-03-27 02:00:00,
2013-03-27 03:05:00,55.2,53.8,29.55,West,276,11.5,11.5,95,0.00,CLR,,0.00,WeatherDisplay:10.37,2013-03-27 02:05:00,
2013-03-27 03:10:00,55.2,53.8,29.55,West,262,8.1,8.1,95,0.00,CLR,,0.00,WeatherDisplay:10.37,2013-03-27 02:10:00,
2013-03-27 03:15:00,55.2,53.8,29.55,West,266,11.5,11.5,95,0.00,CLR,,0.00,WeatherDisplay:10.37,2013-03-27 02:15:00,
2013-03-27 03:20:00,55.1,53.7,29.55,WSW,253,11.5,11.5,95,0.00,CLR,,0.00,WeatherDisplay:10.37,2013-03-27 02:20:00,
2013-03-27 03:25:00,55.1,53.7,29.55,WSW,251,12.7,12.7,95,0.00,CLR,,0.00,WeatherDisplay:10.37,2013-03-27 02:25:00,
2013-03-27 03:30:00,55.0,53.6,29.55,WSW,243,11.5,11.5,95,0.00,CLR,,0.00,WeatherDisplay:10.37,2013-03-27 02:30:00,
2013-03-27 03:35:00,55.0,53.6,29.54,West,274,11.5,11.5,95,0.00,CLR,,0.00,WeatherDisplay:10.37,2013-03-27 02:35:00,
2013-03-27 03:40:00,54.9,53.5,29.54,WSW,256,14.0,14.0,95,0.00,CLR,,0.00,WeatherDisplay:10.37,2013-03-27 02:40:00,
2013-03-27 03:45:00,54.9,53.5,29.54,West,259,11.5,11.5,95,0.00,CLR,,0.00,WeatherDisplay:10.37,2013-03-27 02:45:00,
2013-03-27 03:50:00,54.9,53.5,29.54,WSW,246,13.8,13.8,95,0.00,CLR,,0.00,WeatherDisplay:10.37,2013-03-27 02:50:00,
2013-03-27 03:55:00,54.9,53.5,29.54,West,276,15.0,15.0,95,0.00,CLR,,0.00,WeatherDisplay:10.37,2013-03-27 02:55:00,
2013-03-27 04:00:00,54.8,53.4,29.53,WSW,258,11.5,11.5,95,0.00,CLR,,0.00,WeatherDisplay:10.37,2013-03-27 03:00:00,
2013-03-27 04:05:00,54.8,53.4,29.54,West,264,11.5,11.5,95,0.00,CLR,,0.00,WeatherDisplay:10.37,2013-03-27 03:05:00,
2013-03-27 04:10:00,54.7,53.3,29.54,West,272,12.7,12.7,95,0.00,CLR,,0.00,WeatherDisplay:10.37,2013-03-27 03:10:00,
2013-03-27 04:15:00,54.7,53.3,29.54,WSW,254,12.7,12.7,95,0.00,CLR,,0.00,WeatherDisplay:10.37,2013-03-27 03:15:00,
2013-03-27 04:20:00,54.6,53.2,29.54,West,259,11.5,11.5,95,0.00,CLR,,0.00,WeatherDisplay:10.37,2013-03-27 03:20:00,
2013-03-27 04:25:00,54.5,53.1,29.54,WSW,245,11.5,11.5,95,0.00,CLR,,0.00,WeatherDisplay:10.37,2013-03-27 03:25:00,
2013-03-27 04:30:00,54.6,53.2,29.53,WSW,239,13.8,13.8,95,0.00,CLR,,0.00,WeatherDisplay:10.37,2013-03-27 03:30:00,
2013-03-27 04:35:00,54.6,53.2,29.53,WSW,246,12.7,12.7,95,0.00,CLR,,0.00,WeatherDisplay:10.37,2013-03-27 03:35:00,
2013-03-27 04:40:00,54.6,53.2,29.53,WSW,250,11.5,11.5,95,0.00,CLR,,0.00,WeatherDisplay:10.37,2013-03-27 03:40:00,
2013-03-27 04:45:00,54.5,53.1,29.53,West,267,11.5,11.5,95,0.00,CLR,,0.00,WeatherDisplay:10.37,2013-03-27 03:45:00,
2013-03-27 04:50:00,54.5,53.1,29.53,WNW,293,11.5,11.5,95,0.00,CLR,,0.00,WeatherDisplay:10.37,2013-03-27 03:50:00,
2013-03-27 04:55:00,54.5,53.1,29.53,WSW,258,11.5,11.5,95,0.00,CLR,,0.00,WeatherDisplay:10.37,2013-03-27 03:55:00,
2013-03-27 05:00:00,54.5,53.1,29.53,West,268,12.7,12.7,95,0.00,CLR,,0.00,WeatherDisplay:10.37,2013-03-27 04:00:00,
2013-03-27 05:05:00,54.4,53.0,29.54,West,272,13.8,13.8,95,0.00,CLR,,0.00,WeatherDisplay:10.37,2013-03-27 04:05:00,
2013-03-27 05:10:00,54.4,53.0,29.54,WSW,252,16.1,16.1,95,0.00,CLR,,0.00,WeatherDisplay:10.37,2013-03-27 04:10:00,
2013-03-27 05:15:00,54.5,53.1,29.54,WSW,256,16.1,16.1,95,0.00,CLR,,0.00,WeatherDisplay:10.37,2013-03-27 04:15:00,
2013-03-27 05:20:00,54.5,53.1,29.54,West,266,15.0,15.0,95,0.00,CLR,,0.00,WeatherDisplay:10.37,2013-03-27 04:20:00,
2013-03-27 05:25:00,54.4,53.0,29.54,West,270,12.7,12.7,95,0.00,CLR,,0.00,WeatherDisplay:10.37,2013-03-27 04:25:00,
2013-03-27 05:30:00,54.5,53.1,29.54,SW,228,13.8,13.8,95,0.00,CLR,,0.00,WeatherDisplay:10.37,2013-03-27 04:30:00,
2013-03-27 05:35:00,54.5,53.1,29.54,WSW,256,12.7,12.7,95,0.00,CLR,,0.00,WeatherDisplay:10.37,2013-03-27 04:35:00,
2013-03-27 05:40:00,54.5,53.1,29.54,WNW,289,16.1,16.1,95,0.00,CLR,,0.00,WeatherDisplay:10.37,2013-03-27 04:40:00,
2013-03-27 05:45:00,54.5,53.1,29.53,WNW,294,12.7,12.7,95,0.00,CLR,,0.00,WeatherDisplay:10.37,2013-03-27 04:45:00,
2013-03-27 05:50:00,54.5,53.1,29.53,WNW,303,12.7,12.7,95,0.00,CLR,,0.00,WeatherDisplay:10.37,2013-03-27 04:50:00,
2013-03-27 05:55:00,54.4,53.0,29.53,West,273,12.7,12.7,95,0.00,CLR,,0.00,WeatherDisplay:10.37,2013-03-27 04:55:00,
2013-03-27 06:00:00,54.5,53.1,29.53,WNW,291,14.0,14.0,95,0.00,CLR,,0.00,WeatherDisplay:10.37,2013-03-27 05:00:00,
2013-03-27 06:05:00,54.4,53.0,29.53,WSW,247,15.0,15.0,95,0.00,CLR,,0.00,WeatherDisplay:10.37,2013-03-27 05:05:00,
2013-03-27 06:10:00,54.5,53.1,29.53,NW,311,12.7,12.7,95,0.00,CLR,,0.00,WeatherDisplay:10.37,2013-03-27 05:10:00,
2013-03-27 06:15:00,54.6,53.2,29.54,West,262,13.8,13.8,95,0.00,CLR,,0.00,WeatherDisplay:10.37,2013-03-27 05:15:00,
2013-03-27 06:20:00,54.7,53.3,29.54,WNW,291,12.7,12.7,95,0.00,CLR,,0.00,WeatherDisplay:10.37,2013-03-27 05:20:00,
2013-03-27 06:25:00,54.7,53.3,29.54,West,264,13.8,13.8,95,0.00,CLR,,0.00,WeatherDisplay:10.37,2013-03-27 05:25:00,
2013-03-27 06:30:00,54.6,53.2,29.54,West,262,15.0,15.0,95,0.00,CLR,,0.00,WeatherDisplay:10.37,2013-03-27 05:30:00,
2013-03-27 06:35:00,54.4,53.0,29.54,WSW,239,13.8,13.8,95,0.00,CLR,,0.00,WeatherDisplay:10.37,2013-03-27 05:35:00,
2013-03-27 06:40:00,54.4,53.0,29.55,WSW,246,13.8,13.8,95,0.00,CLR,,0.00,WeatherDisplay:10.37,2013-03-27 05:40:00,
2013-03-27 06:45:00,54.4,53.0,29.55,WSW,258,12.7,12.7,95,0.00,CLR,,0.00,WeatherDisplay:10.37,2013-03-27 05:45:00,
2013-03-27 06:50:00,54.4,53.0,29.55,WNW,283,12.7,12.7,95,0.00,CLR,,0.00,WeatherDisplay:10.37,2013-03-27 05:50:00,
2013-03-27 06:56:00,54.5,53.1,29.55,WNW,297,15.0,15.0,95,0.00,CLR,,0.00,WeatherDisplay:10.37,2013-03-27 05:56:00,
2013-03-27 07:01:00,54.5,53.1,29.55,West,269,15.0,15.0,95,0.00,CLR,,0.00,WeatherDisplay:10.37,2013-03-27 06:01:00,
2013-03-27 07:07:00,54.4,53.0,29.55,West,270,16.1,16.1,95,0.00,CLR,,0.00,WeatherDisplay:10.37,2013-03-27 06:07:00,
2013-03-27 07:12:00,54.4,53.0,29.56,WSW,257,16.1,16.1,95,0.00,CLR,,0.00,WeatherDisplay:10.37,2013-03-27 06:12:00,
2013-03-27 07:17:00,54.4,53.0,29.56,WSW,251,17.3,17.3,95,0.00,CLR,,0.00,WeatherDisplay:10.37,2013-03-27 06:17:00,
2013-03-27 07:22:00,54.5,53.1,29.56,WSW,246,15.0,15.0,95,0.00,CLR,,0.00,WeatherDisplay:10.37,2013-03-27 06:22:00,
2013-03-27 07:27:00,54.5,53.1,29.56,WSW,249,12.7,12.7,95,0.00,CLR,,0.00,WeatherDisplay:10.37,2013-03-27 06:27:00,
2013-03-27 07:32:00,54.6,53.2,29.56,WSW,249,12.7,12.7,95,0.00,CLR,,0.00,WeatherDisplay:10.37,2013-03-27 06:32:00,
2013-03-27 07:37:00,54.6,53.2,29.57,West,276,11.5,11.5,95,0.00,CLR,,0.00,WeatherDisplay:10.37,2013-03-27 06:37:00,
2013-03-27 07:42:00,54.7,53.3,29.56,West,264,11.5,11.5,95,0.00,CLR,,0.00,WeatherDisplay:10.37,2013-03-27 06:42:00,
2013-03-27 07:47:00,54.7,53.3,29.56,WSW,253,11.5,11.5,95,0.00,CLR,,0.00,WeatherDisplay:10.37,2013-03-27 06:47:00,
2013-03-27 07:52:00,54.7,53.3,29.56,WSW,247,11.5,11.5,95,0.00,CLR,,0.00,WeatherDisplay:10.37,2013-03-27 06:52:00,
2013-03-27 07:57:00,54.8,53.4,29.57,WSW,250,15.0,15.0,95,0.00,CLR,,0.00,WeatherDisplay:10.37,2013-03-27 06:57:00,
2013-03-27 08:02:00,54.9,53.5,29.57,WNW,288,16.1,16.1,95,0.00,CLR,,0.00,WeatherDisplay:10.37,2013-03-27 07:02:00,
2013-03-27 08:07:00,55.1,53.7,29.57,West,276,17.3,17.3,95,0.00,CLR,,0.00,WeatherDisplay:10.37,2013-03-27 07:07:00,
2013-03-27 08:12:00,55.2,53.5,29.57,WNW,291,12.0,12.0,94,0.00,CLR,,0.00,WeatherDisplay:10.37,2013-03-27 07:12:00,
2013-03-27 08:17:00,55.3,53.6,29.57,WSW,256,15.0,15.0,94,0.00,CLR,,0.00,WeatherDisplay:10.37,2013-03-27 07:17:00,
2013-03-27 08:22:00,55.4,53.7,29.57,WSW,255,14.0,14.0,94,0.00,CLR,,0.00,WeatherDisplay:10.37,2013-03-27 07:22:00,
2013-03-27 08:27:00,55.5,53.8,29.57,West,270,12.7,12.7,94,0.00,CLR,,0.00,WeatherDisplay:10.37,2013-03-27 07:27:00,
2013-03-27 08:32:00,55.6,53.6,29.57,SW,230,17.3,17.3,93,0.00,CLR,,0.00,WeatherDisplay:10.37,2013-03-27 07:32:00,
2013-03-27 08:37:00,55.8,53.8,29.57,West,263,15.0,15.0,93,0.00,CLR,,0.00,WeatherDisplay:10.37,2013-03-27 07:37:00,
2013-03-27 08:42:00,55.9,53.9,29.57,West,259,15.0,15.0,93,0.00,CLR,,0.00,WeatherDisplay:10.37,2013-03-27 07:42:00,
2013-03-27 08:47:00,56.0,53.7,29.57,West,275,16.1,16.1,92,0.00,CLR,,0.00,WeatherDisplay:10.37,2013-03-27 07:47:00,
2013-03-27 08:52:00,56.1,53.5,29.57,West,265,16.1,16.1,91,0.00,CLR,,0.00,WeatherDisplay:10.37,2013-03-27 07:52:00,
2013-03-27 08:57:00,56.2,53.6,29.57,WSW,250,12.7,12.7,91,0.00,CLR,,0.00,WeatherDisplay:10.37,2013-03-27 07:57:00,
2013-03-27 09:02:00,56.3,53.7,29.57,WSW,247,13.8,13.8,91,0.00,CLR,,0.00,WeatherDisplay:10.37,2013-03-27 08:02:00,
2013-03-27 09:08:00,56.5,53.6,29.57,West,262,19.6,19.6,90,0.00,CLR,,0.00,WeatherDisplay:10.37,2013-03-27 08:08:00,
2013-03-27 09:13:00,56.7,53.8,29.57,WSW,249,14.0,14.0,90,0.00,CLR,,0.00,WeatherDisplay:10.37,2013-03-27 08:13:00,
2013-03-27 09:18:00,56.8,53.6,29.57,WSW,246,15.0,15.0,89,0.00,CLR,,0.00,WeatherDisplay:10.37,2013-03-27 08:18:00,
2013-03-27 09:23:00,57.0,53.5,29.57,WNW,285,19.6,19.6,88,0.00,CLR,,0.00,WeatherDisplay:10.37,2013-03-27 08:23:00,
2013-03-27 09:28:00,57.3,53.8,29.57,NNW,342,13.8,13.8,88,0.00,CLR,,0.00,WeatherDisplay:10.37,2013-03-27 08:28:00,
2013-03-27 09:33:00,57.5,54.0,29.58,NW,310,13.8,13.8,88,0.00,CLR,,0.00,WeatherDisplay:10.37,2013-03-27 08:33:00,
2013-03-27 09:38:00,58.0,54.5,29.58,WSW,239,13.8,13.8,88,0.00,CLR,,0.00,WeatherDisplay:10.37,2013-03-27 08:38:00,
2013-03-27 09:43:00,58.6,54.4,29.58,West,264,16.1,16.1,86,0.00,CLR,,0.00,WeatherDisplay:10.37,2013-03-27 08:43:00,
2013-03-27 09:48:00,59.0,53.8,29.58,West,262,19.6,19.6,83,0.00,CLR,,0.00,WeatherDisplay:10.37,2013-03-27 08:48:00,
2013-03-27 09:53:00,59.4,53.9,29.58,East,98,20.0,20.0,82,0.00,CLR,,0.00,WeatherDisplay:10.37,2013-03-27 08:53:00,
2013-03-27 09:58:00,59.6,53.4,29.58,West,280,18.4,18.4,80,0.00,CLR,,0.00,WeatherDisplay:10.37,2013-03-27 08:58:00,
2013-03-27 10:03:00,59.6,53.4,29.58,WNW,297,17.3,17.3,80,0.00,CLR,,0.00,WeatherDisplay:10.37,2013-03-27 09:03:00,
2013-03-27 10:08:00,59.7,53.2,29.58,WNW,303,21.9,21.9,79,0.00,CLR,,0.00,WeatherDisplay:10.37,2013-03-27 09:08:00,
2013-03-27 10:13:00,60.2,53.3,29.58,West,270,19.6,19.6,78,0.00,CLR,,0.00,WeatherDisplay:10.37,2013-03-27 09:13:00,
2013-03-27 10:18:00,60.7,53.8,29.58,West,271,18.4,18.4,78,0.00,CLR,,0.00,WeatherDisplay:10.37,2013-03-27 09:18:00,
2013-03-27 10:23:00,61.0,53.0,29.58,West,262,16.1,16.1,75,0.00,CLR,,0.00,WeatherDisplay:10.37,2013-03-27 09:23:00,
2013-03-27 10:28:00,61.1,53.1,29.59,WNW,282,13.8,13.8,75,0.00,CLR,,0.00,WeatherDisplay:10.37,2013-03-27 09:28:00,
2013-03-27 10:33:00,61.2,53.2,29.59,NNW,328,17.0,17.0,75,0.00,CLR,,0.00,WeatherDisplay:10.37,2013-03-27 09:33:00,
2013-03-27 10:38:00,61.0,53.0,29.59,WNW,291,17.0,17.0,75,0.00,CLR,,0.00,WeatherDisplay:10.37,2013-03-27 09:38:00,
2013-03-27 10:43:00,61.0,52.7,29.59,WNW,293,12.7,12.7,74,0.00,CLR,,0.00,WeatherDisplay:10.37,2013-03-27 09:43:00,
2013-03-27 10:48:00,61.2,53.2,29.59,WNW,291,15.0,15.0,75,0.00,CLR,,0.00,WeatherDisplay:10.37,2013-03-27 09:48:00,
2013-03-27 10:53:00,61.2,52.8,29.59,SSW,204,18.4,18.4,74,0.00,CLR,,0.00,WeatherDisplay:10.37,2013-03-27 09:53:00,
2013-03-27 10:58:00,61.3,52.9,29.60,WSW,251,20.0,20.0,74,0.00,CLR,,0.00,WeatherDisplay:10.37,2013-03-27 09:58:00,
2013-03-27 11:03:00,61.3,53.3,29.60,WSW,249,15.0,15.0,75,0.00,CLR,,0.00,WeatherDisplay:10.37,2013-03-27 10:03:00,
2013-03-27 11:08:00,61.4,53.0,29.59,WSW,245,21.9,21.9,74,0.00,CLR,,0.00,WeatherDisplay:10.37,2013-03-27 10:08:00,
2013-03-27 11:13:00,61.4,53.0,29.60,WSW,241,19.6,19.6,74,0.00,CLR,,0.00,WeatherDisplay:10.37,2013-03-27 10:13:00,
2013-03-27 11:18:00,62.0,53.2,29.59,SSW,197,20.7,20.7,73,0.00,CLR,,0.00,WeatherDisplay:10.37,2013-03-27 10:18:00,
2013-03-27 11:23:00,62.1,51.4,29.59,WSW,256,26.5,26.5,68,0.00,CLR,,0.00,WeatherDisplay:10.37,2013-03-27 10:23:00,
2013-03-27 11:28:00,61.7,51.8,29.60,WSW,239,24.2,24.2,70,0.00,CLR,,0.00,WeatherDisplay:10.37,2013-03-27 10:28:00,
2013-03-27 11:33:00,61.5,51.2,29.59,WSW,237,27.0,27.0,69,0.00,CLR,,0.00,WeatherDisplay:10.37,2013-03-27 10:33:00,
2013-03-27 11:38:00,61.7,51.4,29.60,WSW,250,23.0,23.0,69,0.00,CLR,,0.00,WeatherDisplay:10.37,2013-03-27 10:38:00,
2013-03-27 11:43:00,61.9,52.4,29.60,WSW,239,19.6,19.6,71,0.00,CLR,,0.00,WeatherDisplay:10.37,2013-03-27 10:43:00,
2013-03-27 11:48:00,61.5,51.6,29.60,North,359,19.6,19.6,70,0.00,CLR,,0.00,WeatherDisplay:10.37,2013-03-27 10:48:00,
2013-03-27 11:53:00,61.3,51.8,29.60,WSW,239,23.0,23.0,71,0.00,CLR,,0.00,WeatherDisplay:10.37,2013-03-27 10:53:00,
2013-03-27 11:58:00,62.1,53.0,29.60,WSW,249,17.3,17.3,72,0.00,CLR,,0.00,WeatherDisplay:10.37,2013-03-27 10:58:00,
2013-03-27 12:03:00,62.0,52.9,29.60,WSW,251,15.0,15.0,72,0.00,CLR,,0.00,WeatherDisplay:10.37,2013-03-27 11:03:00,
2013-03-27 12:08:00,62.6,53.4,29.60,WSW,249,15.0,15.0,72,0.00,CLR,,0.00,WeatherDisplay:10.37,2013-03-27 11:08:00,
2013-03-27 12:13:00,62.2,51.9,29.60,SSW,203,19.6,19.6,69,0.00,CLR,,0.00,WeatherDisplay:10.37,2013-03-27 11:13:00,
2013-03-27 12:18:00,62.9,52.2,29.60,West,261,21.9,21.9,68,0.00,CLR,,0.00,WeatherDisplay:10.37,2013-03-27 11:18:00,
2013-03-27 12:23:00,63.1,52.8,29.60,WSW,254,19.6,19.6,69,0.00,CLR,,0.00,WeatherDisplay:10.37,2013-03-27 11:23:00,
2013-03-27 12:28:00,62.6,51.9,29.60,WSW,256,21.9,21.9,68,0.00,CLR,,0.00,WeatherDisplay:10.37,2013-03-27 11:28:00,
2013-03-27 12:33:00,63.1,52.4,29.60,SW,232,17.3,17.3,68,0.00,CLR,,0.00,WeatherDisplay:10.37,2013-03-27 11:33:00,
2013-03-27 12:38:00,63.1,53.2,29.60,West,260,19.6,19.6,70,0.00,CLR,,0.00,WeatherDisplay:10.37,2013-03-27 11:38:00,
2013-03-27 12:43:00,62.0,52.5,29.60,WSW,244,24.2,24.2,71,0.00,CLR,,0.00,WeatherDisplay:10.37,2013-03-27 11:43:00,
2013-03-27 12:48:00,61.6,50.9,29.60,WSW,243,21.9,21.9,68,0.00,CLR,,0.00,WeatherDisplay:10.37,2013-03-27 11:48:00,
2013-03-27 12:53:00,61.9,52.0,29.60,WSW,246,23.0,23.0,70,0.00,CLR,,0.00,WeatherDisplay:10.37,2013-03-27 11:53:00,
2013-03-27 12:58:00,63.0,51.5,29.60,WNW,296,23.0,23.0,66,0.00,CLR,,0.00,WeatherDisplay:10.37,2013-03-27 11:58:00,
2013-03-27 13:03:00,63.2,50.8,29.60,WSW,238,21.9,21.9,64,0.00,CLR,,0.00,WeatherDisplay:10.37,2013-03-27 12:03:00,
2013-03-27 13:08:00,62.4,50.9,29.60,WSW,241,26.5,26.5,66,0.00,CLR,,0.00,WeatherDisplay:10.37,2013-03-27 12:08:00,
2013-03-27 13:13:00,62.3,51.6,29.60,WSW,258,19.6,19.6,68,0.00,CLR,,0.00,WeatherDisplay:10.37,2013-03-27 12:13:00,
2013-03-27 13:18:00,62.2,51.5,29.60,SW,224,31.1,31.1,68,0.00,CLR,,0.00,WeatherDisplay:10.37,2013-03-27 12:18:00,
2013-03-27 13:23:00,62.4,52.1,29.60,WNW,301,27.6,27.6,69,0.00,CLR,,0.00,WeatherDisplay:10.37,2013-03-27 12:23:00,
2013-03-27 13:28:00,62.4,52.5,29.60,WSW,251,16.1,16.1,70,0.00,CLR,,0.00,WeatherDisplay:10.37,2013-03-27 12:28:00,
2013-03-27 13:33:00,62.8,52.9,29.60,WSW,241,18.0,18.0,70,0.00,CLR,,0.00,WeatherDisplay:10.37,2013-03-27 12:33:00,
2013-03-27 13:38:00,62.3,51.2,29.60,West,266,26.5,26.5,67,0.00,CLR,,0.00,WeatherDisplay:10.37,2013-03-27 12:38:00,
2013-03-27 13:43:00,62.2,51.9,29.60,WSW,258,24.2,24.2,69,0.00,CLR,,0.00,WeatherDisplay:10.37,2013-03-27 12:43:00,
2013-03-27 13:48:00,62.8,51.7,29.60,West,259,19.6,19.6,67,0.00,CLR,,0.00,WeatherDisplay:10.37,2013-03-27 12:48:00,
2013-03-27 13:53:00,62.8,52.1,29.60,WSW,247,25.3,25.3,68,0.00,CLR,,0.00,WeatherDisplay:10.37,2013-03-27 12:53:00,
2013-03-27 13:58:00,62.9,52.6,29.60,West,281,23.0,23.0,69,0.00,CLR,,0.00,WeatherDisplay:10.37,2013-03-27 12:58:00,
2013-03-27 14:03:00,63.0,53.1,29.60,SW,235,22.0,22.0,70,0.00,CLR,,0.00,WeatherDisplay:10.37,2013-03-27 13:03:00,
2013-03-27 14:08:00,63.0,53.4,29.60,WNW,295,19.6,19.6,71,0.00,CLR,,0.00,WeatherDisplay:10.37,2013-03-27 13:08:00,
2013-03-27 14:13:00,62.0,51.7,29.60,WSW,251,26.5,26.5,69,0.00,CLR,,0.00,WeatherDisplay:10.37,2013-03-27 13:13:00,
2013-03-27 14:18:00,61.8,51.5,29.60,WSW,241,29.0,29.0,69,0.00,CLR,,0.00,WeatherDisplay:10.37,2013-03-27 13:18:00,
2013-03-27 14:23:00,61.8,51.9,29.60,WSW,239,21.9,21.9,70,0.00,CLR,,0.00,WeatherDisplay:10.37,2013-03-27 13:23:00,
2013-03-27 14:28:00,61.9,52.0,29.60,SW,231,26.5,26.5,70,0.00,CLR,,0.00,WeatherDisplay:10.37,2013-03-27 13:28:00,
2013-03-27 14:33:00,61.5,52.0,29.60,SSW,210,24.2,24.2,71,0.00,CLR,,0.00,WeatherDisplay:10.37,2013-03-27 13:33:00,
2013-03-27 14:38:00,61.4,51.9,29.60,WSW,258,23.0,23.0,71,0.00,CLR,,0.00,WeatherDisplay:10.37,2013-03-27 13:38:00,
2013-03-27 14:43:00,61.6,52.1,29.60,West,272,27.6,27.6,71,0.00,CLR,,0.00,WeatherDisplay:10.37,2013-03-27 13:43:00,
2013-03-27 14:48:00,61.8,51.5,29.60,West,275,24.2,24.2,69,0.00,CLR,,0.00,WeatherDisplay:10.37,2013-03-27 13:48:00,
2013-03-27 14:53:00,61.9,51.2,29.59,WSW,253,29.9,29.9,68,0.00,CLR,,0.00,WeatherDisplay:10.37,2013-03-27 13:53:00,
2013-03-27 14:58:00,62.6,50.7,29.59,SSW,198,26.5,26.5,65,0.00,CLR,,0.00,WeatherDisplay:10.37,2013-03-27 13:58:00,
2013-03-27 15:03:00,62.3,50.8,29.59,SW,214,24.2,24.2,66,0.00,CLR,,0.00,WeatherDisplay:10.37,2013-03-27 14:03:00,
2013-03-27 15:08:00,62.8,51.3,29.59,West,272,27.6,27.6,66,0.00,CLR,,0.00,WeatherDisplay:10.37,2013-03-27 14:08:00,
2013-03-27 15:13:00,62.7,51.6,29.59,West,276,21.9,21.9,67,0.00,CLR,,0.00,WeatherDisplay:10.37,2013-03-27 14:13:00,
2013-03-27 15:18:00,63.5,51.5,29.59,WSW,245,27.6,27.6,65,0.00,CLR,,0.00,WeatherDisplay:10.37,2013-03-27 14:18:00,
2013-03-27 15:23:00,63.3,50.9,29.59,West,264,26.0,26.0,64,0.00,CLR,,0.00,WeatherDisplay:10.37,2013-03-27 14:23:00,
2013-03-27 15:28:00,63.6,51.6,29.59,SW,220,25.3,25.3,65,0.00,CLR,,0.00,WeatherDisplay:10.37,2013-03-27 14:28:00,
2013-03-27 15:33:00,63.7,51.7,29.59,West,266,19.6,19.6,65,0.00,CLR,,0.00,WeatherDisplay:10.37,2013-03-27 14:33:00,
2013-03-27 15:38:00,63.1,50.7,29.59,WSW,243,26.5,26.5,64,0.00,CLR,,0.00,WeatherDisplay:10.37,2013-03-27 14:38:00,
2013-03-27 15:43:00,62.8,50.4,29.59,West,264,27.0,27.0,64,0.00,CLR,,0.00,WeatherDisplay:10.37,2013-03-27 14:43:00,
2013-03-27 15:48:00,63.3,51.3,29.59,WSW,256,21.9,21.9,65,0.00,CLR,,0.00,WeatherDisplay:10.37,2013-03-27 14:48:00,
2013-03-27 15:53:00,63.4,51.4,29.59,WSW,246,19.6,19.6,65,0.00,CLR,,0.00,WeatherDisplay:10.37,2013-03-27 14:53:00,
2013-03-27 15:58:00,63.6,51.6,29.59,WSW,238,19.6,19.6,65,0.00,CLR,,0.00,WeatherDisplay:10.37,2013-03-27 14:58:00,
2013-03-27 16:03:00,62.9,51.4,29.59,SW,226,25.3,25.3,66,0.00,CLR,,0.00,WeatherDisplay:10.37,2013-03-27 15:03:00,
2013-03-27 16:08:00,62.6,51.5,29.60,SW,230,25.3,25.3,67,0.00,CLR,,0.00,WeatherDisplay:10.37,2013-03-27 15:08:00,
2013-03-27 16:13:00,62.4,52.1,29.60,SW,235,23.0,23.0,69,0.00,CLR,,0.00,WeatherDisplay:10.37,2013-03-27 15:13:00,
2013-03-27 16:18:00,61.9,52.0,29.60,WSW,250,21.9,21.9,70,0.00,CLR,,0.00,WeatherDisplay:10.37,2013-03-27 15:18:00,
2013-03-27 16:23:00,61.6,51.7,29.60,SW,216,23.0,23.0,70,0.00,CLR,,0.00,WeatherDisplay:10.37,2013-03-27 15:23:00,
2013-03-27 16:28:00,61.6,51.7,29.60,SW,227,21.9,21.9,70,0.00,CLR,,0.00,WeatherDisplay:10.37,2013-03-27 15:28:00,
2013-03-27 16:33:00,61.4,51.9,29.60,SW,233,19.6,19.6,71,0.00,CLR,,0.00,WeatherDisplay:10.37,2013-03-27 15:33:00,
2013-03-27 16:38:00,61.3,51.8,29.60,WSW,248,18.4,18.4,71,0.00,CLR,,0.00,WeatherDisplay:10.37,2013-03-27 15:38:00,
2013-03-27 16:43:00,61.4,51.9,29.60,WSW,251,18.4,18.4,71,0.00,CLR,,0.00,WeatherDisplay:10.37,2013-03-27 15:43:00,
2013-03-27 16:48:00,61.8,51.9,29.60,WSW,253,20.7,20.7,70,0.00,CLR,,0.00,WeatherDisplay:10.37,2013-03-27 15:48:00,
2013-03-27 16:53:00,61.7,51.8,29.60,WSW,256,19.6,19.6,70,0.00,CLR,,0.00,WeatherDisplay:10.37,2013-03-27 15:53:00,
2013-03-27 16:58:00,61.8,51.5,29.60,SW,220,18.4,18.4,69,0.00,CLR,,0.00,WeatherDisplay:10.37,2013-03-27 15:58:00,
2013-03-27 17:03:00,61.9,51.6,29.60,West,264,17.3,17.3,69,0.00,CLR,,0.00,WeatherDisplay:10.37,2013-03-27 16:03:00,
2013-03-27 17:08:00,61.7,52.2,29.61,SW,235,19.6,19.6,71,0.00,CLR,,0.00,WeatherDisplay:10.37,2013-03-27 16:08:00,
2013-03-27 17:13:00,61.5,53.5,29.61,SW,235,18.4,18.4,75,0.00,CLR,,0.00,WeatherDisplay:10.37,2013-03-27 16:13:00,
2013-03-27 17:18:00,60.7,53.4,29.61,WSW,249,18.4,18.4,77,0.00,CLR,,0.00,WeatherDisplay:10.37,2013-03-27 16:18:00,
2013-03-27 17:23:00,60.6,54.0,29.61,WSW,243,16.1,16.1,79,0.00,CLR,,0.00,WeatherDisplay:10.37,2013-03-27 16:23:00,
2013-03-27 17:28:00,60.8,54.6,29.61,WSW,252,10.4,10.4,80,0.00,CLR,,0.00,WeatherDisplay:10.37,2013-03-27 16:28:00,
2013-03-27 17:33:00,60.8,54.2,29.61,SW,231,15.0,15.0,79,0.00,CLR,,0.00,WeatherDisplay:10.37,2013-03-27 16:33:00,
2013-03-27 17:38:00,60.1,54.2,29.62,SW,231,16.1,16.1,81,0.00,CLR,,0.00,WeatherDisplay:10.37,2013-03-27 16:38:00,
2013-03-27 17:43:00,59.5,54.0,29.61,WSW,249,17.3,17.3,82,0.00,CLR,,0.00,WeatherDisplay:10.37,2013-03-27 16:43:00,
2013-03-27 17:48:00,59.3,53.8,29.62,SW,224,17.3,17.3,82,0.00,CLR,,0.00,WeatherDisplay:10.37,2013-03-27 16:48:00,
2013-03-27 17:53:00,59.6,54.4,29.62,WSW,253,13.8,13.8,83,0.00,CLR,,0.00,WeatherDisplay:10.37,2013-03-27 16:53:00,
2013-03-27 17:58:00,59.7,54.2,29.62,WSW,249,15.0,15.0,82,0.00,CLR,,0.00,WeatherDisplay:10.37,2013-03-27 16:58:00,
2013-03-27 18:03:00,59.7,54.5,29.62,WSW,241,11.5,11.5,83,0.00,CLR,,0.00,WeatherDisplay:10.37,2013-03-27 17:03:00,
2013-03-27 18:08:00,59.1,53.6,29.62,WSW,244,16.1,16.1,82,0.00,CLR,,0.00,WeatherDisplay:10.37,2013-03-27 17:08:00,
2013-03-27 18:13:00,59.1,53.9,29.62,WNW,288,9.2,9.2,83,0.00,CLR,,0.00,WeatherDisplay:10.37,2013-03-27 17:13:00,
2013-03-27 18:18:00,59.1,53.9,29.63,SW,235,13.0,13.0,83,0.00,CLR,,0.00,WeatherDisplay:10.37,2013-03-27 17:18:00,
2013-03-27 18:23:00,58.6,54.1,29.63,WSW,253,11.5,11.5,85,0.00,CLR,,0.00,WeatherDisplay:10.37,2013-03-27 17:23:00,
2013-03-27 18:28:00,58.1,53.9,29.63,WSW,247,13.8,13.8,86,0.00,CLR,,0.00,WeatherDisplay:10.37,2013-03-27 17:28:00,
2013-03-27 18:33:00,57.6,54.1,29.63,SW,216,15.0,15.0,88,0.00,CLR,,0.00,WeatherDisplay:10.37,2013-03-27 17:33:00,
2013-03-27 18:38:00,57.3,54.1,29.63,WSW,243,15.0,15.0,89,0.00,CLR,,0.00,WeatherDisplay:10.37,2013-03-27 17:38:00,
2013-03-27 18:43:00,57.0,54.1,29.64,WSW,239,17.3,17.3,90,0.00,CLR,,0.00,WeatherDisplay:10.37,2013-03-27 17:43:00,
2013-03-27 18:48:00,56.7,53.8,29.64,SW,227,18.4,18.4,90,0.00,CLR,,0.00,WeatherDisplay:10.37,2013-03-27 17:48:00,
2013-03-27 18:53:00,56.6,54.0,29.64,WSW,256,12.7,12.7,91,0.00,CLR,,0.00,WeatherDisplay:10.37,2013-03-27 17:53:00,
2013-03-27 18:58:00,56.5,53.9,29.64,WSW,237,16.1,16.1,91,0.00,CLR,,0.00,WeatherDisplay:10.37,2013-03-27 17:58:00,
2013-03-27 19:03:00,56.5,54.2,29.64,WSW,242,19.6,19.6,92,0.00,CLR,,0.00,WeatherDisplay:10.37,2013-03-27 18:03:00,
2013-03-27 19:08:00,56.5,54.2,29.64,WSW,241,11.5,11.5,92,0.00,CLR,,0.00,WeatherDisplay:10.37,2013-03-27 18:08:00,
2013-03-27 19:13:00,56.5,54.2,29.64,SW,233,21.0,21.0,92,0.00,CLR,,0.00,WeatherDisplay:10.37,2013-03-27 18:13:00,
2013-03-27 19:18:00,56.3,54.0,29.65,WSW,244,20.7,20.7,92,0.00,CLR,,0.00,WeatherDisplay:10.37,2013-03-27 18:18:00,
2013-03-27 19:23:00,56.3,54.3,29.64,WSW,258,18.4,18.4,93,0.00,CLR,,0.00,WeatherDisplay:10.37,2013-03-27 18:23:00,
2013-03-27 19:28:00,56.3,54.3,29.65,WSW,242,19.6,19.6,93,0.00,CLR,,0.00,WeatherDisplay:10.37,2013-03-27 18:28:00,
2013-03-27 19:33:00,56.2,54.2,29.65,West,279,16.1,16.1,93,0.00,CLR,,0.00,WeatherDisplay:10.37,2013-03-27 18:33:00,
2013-03-27 19:38:00,56.3,54.3,29.65,West,260,11.5,11.5,93,0.00,CLR,,0.00,WeatherDisplay:10.37,2013-03-27 18:38:00,
2013-03-27 19:43:00,56.3,54.3,29.65,West,268,12.7,12.7,93,0.00,CLR,,0.00,WeatherDisplay:10.37,2013-03-27 18:43:00,
2013-03-27 19:48:00,56.2,54.2,29.65,WNW,286,12.7,12.7,93,0.00,CLR,,0.00,WeatherDisplay:10.37,2013-03-27 18:48:00,
2013-03-27 19:53:00,56.2,54.2,29.65,West,260,13.8,13.8,93,0.00,CLR,,0.00,WeatherDisplay:10.37,2013-03-27 18:53:00,
2013-03-27 19:58:00,56.2,54.2,29.65,WSW,243,14.0,14.0,93,0.00,CLR,,0.00,WeatherDisplay:10.37,2013-03-27 18:58:00,
2013-03-27 20:03:00,56.2,54.2,29.65,WSW,256,11.0,11.0,93,0.00,CLR,,0.00,WeatherDisplay:10.37,2013-03-27 19:03:00,
2013-03-27 20:08:00,56.1,54.1,29.65,WSW,257,13.0,13.0,93,0.00,CLR,,0.00,WeatherDisplay:10.37,2013-03-27 19:08:00,
2013-03-27 20:13:00,56.1,54.4,29.65,WSW,258,12.7,12.7,94,0.00,CLR,,0.00,WeatherDisplay:10.37,2013-03-27 19:13:00,
2013-03-27 20:18:00,56.0,54.3,29.65,WSW,241,15.0,15.0,94,0.00,CLR,,0.00,WeatherDisplay:10.37,2013-03-27 19:18:00,
2013-03-27 20:23:00,56.0,54.3,29.65,West,266,13.0,13.0,94,0.00,CLR,,0.00,WeatherDisplay:10.37,2013-03-27 19:23:00,
2013-03-27 20:28:00,56.0,54.3,29.65,WSW,251,11.5,11.5,94,0.00,CLR,,0.00,WeatherDisplay:10.37,2013-03-27 19:28:00,
2013-03-27 20:33:00,56.0,54.3,29.66,WSW,241,15.0,15.0,94,0.00,CLR,,0.00,WeatherDisplay:10.37,2013-03-27 19:33:00,
2013-03-27 20:38:00,56.0,54.3,29.66,SW,231,16.1,16.1,94,0.00,CLR,,0.00,WeatherDisplay:10.37,2013-03-27 19:38:00,
2013-03-27 20:43:00,56.0,54.3,29.66,SW,233,11.0,11.0,94,0.00,CLR,,0.00,WeatherDisplay:10.37,2013-03-27 19:43:00,
2013-03-27 20:48:00,55.9,54.2,29.66,WSW,253,12.7,12.7,94,0.00,CLR,,0.00,WeatherDisplay:10.37,2013-03-27 19:48:00,
2013-03-27 20:53:00,55.9,54.2,29.66,West,273,16.1,16.1,94,0.00,CLR,,0.00,WeatherDisplay:10.37,2013-03-27 19:53:00,
2013-03-27 20:58:00,55.9,54.2,29.66,WSW,242,12.7,12.7,94,0.00,CLR,,0.00,WeatherDisplay:10.37,2013-03-27 19:58:00,
2013-03-27 21:03:00,55.9,54.2,29.67,West,262,16.1,16.1,94,0.00,CLR,,0.00,WeatherDisplay:10.37,2013-03-27 20:03:00,
2013-03-27 21:08:00,55.9,54.2,29.67,WSW,251,19.6,19.6,94,0.00,CLR,,0.00,WeatherDisplay:10.37,2013-03-27 20:08:00,
2013-03-27 21:13:00,55.8,54.1,29.67,WSW,241,16.1,16.1,94,0.00,CLR,,0.00,WeatherDisplay:10.37,2013-03-27 20:13:00,
2013-03-27 21:18:00,55.9,54.2,29.67,WSW,250,15.0,15.0,94,0.00,CLR,,0.00,WeatherDisplay:10.37,2013-03-27 20:18:00,
2013-03-27 21:23:00,55.9,54.2,29.67,West,267,11.5,11.5,94,0.00,CLR,,0.00,WeatherDisplay:10.37,2013-03-27 20:23:00,
2013-03-27 21:28:00,55.9,54.2,29.67,West,278,11.5,11.5,94,0.00,CLR,,0.00,WeatherDisplay:10.37,2013-03-27 20:28:00,
2013-03-27 21:33:00,55.9,54.2,29.67,West,276,12.0,12.0,94,0.00,CLR,,0.00,WeatherDisplay:10.37,2013-03-27 20:33:00,
2013-03-27 21:38:00,56.0,54.3,29.67,West,272,11.5,11.5,94,0.00,CLR,,0.00,WeatherDisplay:10.37,2013-03-27 20:38:00,
2013-03-27 21:43:00,55.9,54.2,29.67,West,270,10.0,10.0,94,0.00,CLR,,0.00,WeatherDisplay:10.37,2013-03-27 20:43:00,
2013-03-27 21:48:00,55.9,54.2,29.67,WNW,294,10.4,10.4,94,0.00,CLR,,0.00,WeatherDisplay:10.37,2013-03-27 20:48:00,
2013-03-27 21:53:00,55.9,54.2,29.67,NW,316,6.9,6.9,94,0.00,CLR,,0.00,WeatherDisplay:10.37,2013-03-27 20:53:00,
2013-03-27 21:58:00,55.8,54.1,29.67,WSW,257,11.5,11.5,94,0.00,CLR,,0.00,WeatherDisplay:10.37,2013-03-27 20:58:00,
2013-03-27 22:03:00,55.8,54.1,29.67,West,266,12.0,12.0,94,0.00,CLR,,0.00,WeatherDisplay:10.37,2013-03-27 21:03:00,
2013-03-27 22:08:00,55.8,54.1,29.67,West,263,12.7,12.7,94,0.00,CLR,,0.00,WeatherDisplay:10.37,2013-03-27 21:08:00,
2013-03-27 22:13:00,55.8,54.1,29.67,West,268,11.5,11.5,94,0.00,CLR,,0.00,WeatherDisplay:10.37,2013-03-27 21:13:00,
2013-03-27 22:18:00,55.7,54.0,29.67,WNW,302,10.4,10.4,94,0.00,CLR,,0.00,WeatherDisplay:10.37,2013-03-27 21:18:00,
2013-03-27 22:23:00,55.7,54.0,29.67,WNW,283,11.5,11.5,94,0.00,CLR,,0.00,WeatherDisplay:10.37,2013-03-27 21:23:00,
2013-03-27 22:28:00,55.7,54.0,29.66,West,264,11.5,11.5,94,0.00,CLR,,0.00,WeatherDisplay:10.37,2013-03-27 21:28:00,
2013-03-27 22:33:00,55.6,53.9,29.66,NW,317,11.5,11.5,94,0.00,CLR,,0.00,WeatherDisplay:10.37,2013-03-27 21:33:00,
2013-03-27 22:38:00,55.6,53.9,29.66,West,266,11.5,11.5,94,0.00,CLR,,0.00,WeatherDisplay:10.37,2013-03-27 21:38:00,
2013-03-27 22:43:00,55.6,53.9,29.66,WSW,252,12.0,12.0,94,0.00,CLR,,0.00,WeatherDisplay:10.37,2013-03-27 21:43:00,
2013-03-27 22:48:00,55.6,53.9,29.66,WSW,253,11.5,11.5,94,0.00,CLR,,0.00,WeatherDisplay:10.37,2013-03-27 21:48:00,
2013-03-27 22:53:00,55.5,53.8,29.66,NW,310,11.5,11.5,94,0.00,CLR,,0.00,WeatherDisplay:10.37,2013-03-27 21:53:00,
2013-03-27 22:58:00,55.5,53.8,29.66,West,269,11.5,11.5,94,0.00,CLR,,0.00,WeatherDisplay:10.37,2013-03-27 21:58:00,
2013-03-27 23:03:00,55.5,53.8,29.66,West,261,11.5,11.5,94,0.00,CLR,,0.00,WeatherDisplay:10.37,2013-03-27 22:03:00,
2013-03-27 23:08:00,55.5,53.8,29.66,WNW,284,13.8,13.8,94,0.00,CLR,,0.00,WeatherDisplay:10.37,2013-03-27 22:08:00,
2013-03-27 23:13:00,55.5,53.8,29.67,SW,233,18.4,18.4,94,0.00,CLR,,0.00,WeatherDisplay:10.37,2013-03-27 22:13:00,
2013-03-27 23:18:00,55.6,53.9,29.67,SW,235,17.3,17.3,94,0.00,CLR,,0.00,WeatherDisplay:10.37,2013-03-27 22:18:00,
2013-03-27 23:23:00,55.6,53.9,29.67,WSW,244,15.0,15.0,94,0.00,CLR,,0.00,WeatherDisplay:10.37,2013-03-27 22:23:00,
2013-03-27 23:28:00,55.5,53.8,29.67,WSW,253,14.0,14.0,94,0.00,CLR,,0.00,WeatherDisplay:10.37,2013-03-27 22:28:00,
2013-03-27 23:33:00,55.6,54.2,29.67,WSW,247,11.5,11.5,95,0.00,CLR,,0.00,WeatherDisplay:10.37,2013-03-27 22:33:00,
2013-03-27 23:38:00,55.7,54.3,29.67,WSW,247,16.1,16.1,95,0.00,CLR,,0.00,WeatherDisplay:10.37,2013-03-27 22:38:00,
2013-03-27 23:43:00,55.7,54.3,29.67,WSW,239,19.0,19.0,95,0.00,CLR,,0.00,WeatherDisplay:10.37,2013-03-27 22:43:00,
2013-03-27 23:48:00,55.7,54.3,29.67,WSW,254,19.6,19.6,95,0.00,CLR,,0.00,WeatherDisplay:10.37,2013-03-27 22:48:00,
2013-03-27 23:53:00,55.8,54.4,29.67,WSW,245,17.3,17.3,95,0.00,CLR,,0.00,WeatherDisplay:10.37,2013-03-27 22:53:00,
2013-03-27 23:58:00,55.8,54.4,29.66,West,273,11.5,11.5,95,0.00,CLR,,0.00,WeatherDisplay:10.37,2013-03-27 22:58:00,